Weather in Khar-Tolga

Russia / Republic of Kalmykia     46°06′12″N   45°05′54″E
temp.,
°C
wind,
m/s
gust,
m/s
humid.,
%
clouds,
%
prec.,
mm/h
press.,
hPa
HPBL,
m
13 may, thu
thu1300:00+15se22685 0.0 101419
03:00+14se22743 0.0 101415
06:00+15s12670 0.0 101480
09:00+20se23452 0.0 1015593
12:00+24se34350 0.0 1015983
15:00+26ese33330 0.0 10141110
18:00+25e34390 0.0 1014134
21:00+20ese45460 0.0 101568
14 may, fri
fri1400:00+17se34630 0.0 101557
03:00+15ese36714 0.0 1015105
06:00+16ese3971100 0.0 1015241
09:00+23se7134513 0.0 1015688
12:00+30se914280 0.0 10141385
15:00+31se1115230 0.0 10131764
18:00+27se914310 0.0 1013643
21:00+21ese717330 0.0 1014473
15 may, sat
sat1500:00+18ese515360 0.0 1014337
03:00+17ese515440 0.0 1014284
06:00+18ese515467 0.0 1014344
09:00+26se81426100 0.0 1014745
12:00+31se10141640 0.0 10141872
15:00+31se1012140 0.0 10132070
18:00+27se813220 0.0 1013485
21:00+21ese615390 0.0 1014347
16 may, sun
sun1600:00+18ese5135487 0.0 1013267
03:00+17ese41353100 0.0 1013241
06:00+19ese4125328 0.0 1013275
09:00+27ese71231100 0.0 1012796
12:00+32se10131978 0.0 10102815
15:00+32ese1214205 0.0 10092720
18:00+27ese1014281 0.0 1009790
21:00+22ese816300 0.0 1010474
17 may, mon
mon1700:00+20e716355 0.0 1009406
03:00+20e616395 0.0 1008374
06:00+21ese7194296 0.0 1008525
09:00+27ese1016279 0.0 10081329
12:00+32se11141534 0.0 10082304
15:00+31se1214157 0.0 10082143
18:00+28ese813220 0.0 1009644
21:00+21ese473184 0.0 101196